Location: Bothwell
(42.3833°S, 147.0000°E)
Time: 06:47:22
(UTC+10:00)

ITUPSAT 1 - Visible Passes

Search period start: 25 September 2022 00:00
Search period end: 05 October 2022 01:00
Orbit: 699 x 712 km, 98.6° (Epoch: 24 September)

Date Brightness Start Highest point End Pass type
(mag) Time Alt. Az. Time Alt. Az. Time Alt. Az.
25 Sep ? 19:02:16 11° NE 19:06:15 29° ESE 19:10:25 10° S visible
25 Sep ? 20:41:13 19° NNW 20:43:55 32° W 20:48:17 10° SSW visible
26 Sep ? 19:46:30 20° NNE 19:49:48 75° ESE 19:54:41 10° S visible
26 Sep ? 21:26:13 10° WNW 21:28:07 12° W 21:30:02 10° WSW visible
27 Sep ? 18:52:21 10° ENE 18:56:09 24° ESE 18:59:58 10° SSE visible
27 Sep ? 20:30:44 20° NNW 20:33:39 41° W 20:38:15 10° SSW visible
28 Sep ? 19:36:01 17° NNE 19:39:38 59° ESE 19:44:26 10° S visible
28 Sep ? 21:14:58 10° NW 21:17:46 16° W 21:20:40 10° SW visible
29 Sep ? 18:42:41 10° ENE 18:46:03 19° ESE 18:49:27 10° SSE visible
29 Sep ? 20:20:15 20° N 20:23:23 52° W 20:28:10 10° SSW visible
30 Sep ? 19:25:31 14° NE 19:29:27 46° ESE 19:34:08 10° S visible
30 Sep ? 21:04:28 12° NW 21:07:26 20° W 21:11:00 10° SW visible
01 Oct ? 20:09:45 19° N 20:13:09 67° WNW 20:18:01 10° SSW visible
02 Oct ? 20:15:02 11° NE 20:19:19 37° ESE 20:23:47 10° S visible
02 Oct ? 21:53:59 14° NW 21:57:08 25° W 22:01:08 10° SW visible
03 Oct ? 20:59:16 18° NNE 21:02:56 84° WNW 21:07:50 10° SSW visible
04 Oct ? 20:04:59 10° NE 20:09:09 30° ESE 20:13:23 10° S visible
04 Oct ? 21:43:30 15° NNW 21:46:50 31° W 21:51:11 10° SW visible
